Location: Nitra
(0.0000°N, 18.0833°E)
Time: 01:44:30
(UTC+01:00)

YAOGAN 1 - Pass Details

Date: 30 November 2023
Orbit: 613 x 615 km, 97.8° (Epoch: 03 March)

Event Time Altitude Azimuth Distance (km) Brightness Sun altitude
Rises 19:05:30 0° 172° (S) 2,878 6.2 -20.6°
Reaches altitude 10° 19:07:41 10° 173° (S) 1,970 5.3 -21.1°
Maximum altitude 19:11:58 75° 258° (WSW) 636 2.6 -22.1°
Enters shadow 19:16:11 10° 344° (NNW) 1,946 5.0 -23.1°
